| time (UTC) | temp F | wind direction | speed MPH | gust MPH | rain 1hr in | rain 24hr in | rain mn in | humidity % | barometer mb |
| 20260507103029 | 46 | 0 | 0.0 | 0.0 | 0.00 | 0.00 | 0.00 | 81 | 1018.7 |
| 20260507101530 | 46 | 0 | 0.0 | 0.0 | 0.00 | 0.00 | 0.00 | 81 | 1018.7 |
| 20260507100029 | 46 | 0 | 0.0 | 0.0 | 0.00 | 0.00 | 0.00 | 82 | 1018.6 |
| 20260507094530 | 46 | 0 | 0.0 | 0.0 | 0.00 | 0.00 | 0.00 | 83 | 1018.5 |
| 20260507093036 | 46 | 0 | 0.0 | 0.0 | 0.00 | 0.00 | 0.00 | 83 | 1018.4 |
| 20260507091538 | 46 | 0 | 0.0 | 0.0 | 0.00 | 0.00 | 0.00 | 84 | 1018.4 |
| 20260507090031 | 46 | 0 | 0.0 | 0.0 | 0.00 | 0.00 | 0.00 | 85 | 1018.6 |
| 20260507084533 | 45 | 0 | 0.0 | 0.0 | 0.00 | 0.00 | 0.00 | 85 | 1018.4 |
| 20260507083030 | 45 | 0 | 0.0 | 0.0 | 0.00 | 0.00 | 0.00 | 84 | 1018.8 |
| 20260507081529 | 44 | 0 | 0.0 | 0.0 | 0.00 | 0.00 | 0.00 | 83 | 1019.0 |
| 20260507080032 | 44 | 0 | 0.0 | 0.0 | 0.00 | 0.00 | 0.00 | 82 | 1019.1 |
| 20260507074529 | 45 | 0 | 0.0 | 0.0 | 0.00 | 0.00 | 0.00 | 83 | 1019.3 |
| 20260507073034 | 45 | 0 | 0.0 | 1.0 | 0.00 | 0.00 | 0.00 | 82 | 1019.1 |
| 20260507071534 | 45 | 0 | 0.0 | 0.0 | 0.00 | 0.00 | 0.00 | 80 | 1019.4 |
| 20260507070034 | 45 | 0 | 0.0 | 0.0 | 0.00 | 0.00 | 0.00 | 80 | 1019.3 |
| 20260507064529 | 45 | 0 | 0.0 | 0.0 | 0.00 | 0.00 | 0.00 | 80 | 1019.4 |
| 20260507063046 | 45 | 0 | 0.0 | 0.0 | 0.00 | 0.00 | 0.00 | 79 | 1019.2 |
| 20260507061532 | 46 | 0 | 0.0 | 0.0 | 0.00 | 0.00 | 0.00 | 79 | 1019.5 |
| 20260507060042 | 46 | 0 | 0.0 | 0.0 | 0.00 | 0.00 | 0.00 | 78 | 1019.3 |
| 20260507054533 | 47 | 0 | 0.0 | 0.0 | 0.00 | 0.00 | 0.00 | 77 | 1019.2 |
| 20260507053031 | 47 | 0 | 0.0 | 0.0 | 0.00 | 0.00 | 0.00 | 76 | 1019.3 |
| 20260507051532 | 47 | 0 | 0.0 | 0.0 | 0.00 | 0.00 | 0.00 | 75 | 1018.9 |
| 20260507050036 | 48 | 0 | 0.0 | 0.0 | 0.00 | 0.00 | 0.00 | 74 | 1019.1 |
| 20260507044528 | 48 | 0 | 0.0 | 0.0 | 0.00 | 0.00 | 0.00 | 73 | 1019.1 |
| 20260507043029 | 49 | 0 | 0.0 | 1.0 | 0.00 | 0.00 | 0.00 | 71 | 1019.0 |
| 20260507041528 | 49 | 0 | 0.0 | 0.0 | 0.00 | 0.00 | 0.00 | 71 | 1019.1 |
| 20260507040028 | 50 | 0 | 0.0 | 0.0 | 0.00 | 0.00 | 0.00 | 69 | 1019.1 |
| 20260507034535 | 50 | 0 | 0.0 | 0.0 | 0.00 | 0.00 | 0.00 | 68 | 1019.2 |
| 20260507033030 | 51 | 0 | 0.0 | 0.0 | 0.00 | 0.00 | 0.00 | 66 | 1018.8 |
| 20260507031527 | 52 | 0 | 0.0 | 0.0 | 0.00 | 0.00 | 0.00 | 65 | 1018.7 |
| 20260507030030 | 53 | 0 | 0.0 | 0.0 | 0.00 | 0.00 | 0.00 | 63 | 1018.5 |
| 20260507024531 | 53 | 0 | 0.0 | 0.0 | 0.00 | 0.00 | 0.00 | 61 | 1018.4 |
| 20260507023028 | 54 | 0 | 0.0 | 0.0 | 0.00 | 0.00 | 0.00 | 59 | 1018.4 |
| 20260507021529 | 55 | 0 | 0.0 | 0.0 | 0.00 | 0.00 | 0.00 | 57 | 1018.3 |
| 20260507020039 | 56 | 0 | 0.0 | 0.0 | 0.00 | 0.00 | 0.00 | 55 | 1018.2 |
| 20260507014529 | 57 | 0 | 0.0 | 0.0 | 0.00 | 0.00 | 0.00 | 52 | 1018.1 |
| 20260507013045 | 58 | 0 | 0.0 | 0.0 | 0.00 | 0.00 | 0.00 | 49 | 1017.9 |
| 20260507011530 | 59 | 0 | 0.0 | 0.0 | 0.00 | 0.00 | 0.00 | 48 | 1017.7 |
| 20260507010036 | 60 | 0 | 0.0 | 2.0 | 0.00 | 0.00 | 0.00 | 46 | 1017.6 |
| 20260507004530 | 61 | 90 | 0.0 | 8.0 | 0.00 | 0.00 | 0.00 | 43 | 1017.4 |
| 20260507003029 | 62 | 0 | 0.0 | 6.0 | 0.00 | 0.00 | 0.00 | 42 | 1017.3 |
| 20260507001533 | 63 | 0 | 1.0 | 5.0 | 0.00 | 0.00 | 0.00 | 43 | 1017.3 |
| 20260507000028 | 63 | 78 | 1.0 | 6.0 | 0.00 | 0.00 | 0.00 | 41 | 1017.1 |
| 20260506234535 | 64 | 0 | 2.0 | 8.0 | 0.00 | 0.00 | 0.00 | 41 | 1017.0 |
| 20260506233049 | 63 | 275 | 1.0 | 9.0 | 0.00 | 0.00 | 0.00 | 42 | 1016.9 |
| 20260506231530 | 64 | 13 | 1.0 | 8.0 | 0.00 | 0.00 | 0.00 | 41 | 1016.8 |
| 20260506230030 | 64 | 68 | 3.0 | 9.0 | 0.00 | 0.00 | 0.00 | 41 | 1016.7 |
| 20260506224528 | 65 | 10 | 2.0 | 6.0 | 0.00 | 0.00 | 0.00 | 41 | 1016.5 |
| 20260506223028 | 65 | 101 | 3.0 | 11.0 | 0.00 | 0.00 | 0.00 | 39 | 1016.4 |
| 20260506221529 | 66 | 327 | 2.0 | 15.0 | 0.00 | 0.00 | 0.00 | 39 | 1016.3 |
| 20260506220031 | 67 | 0 | 2.0 | 10.0 | 0.00 | 0.00 | 0.00 | 41 | 1016.2 |
| 20260506214529 | 67 | 40 | 2.0 | 9.0 | 0.00 | 0.00 | 0.00 | 39 | 1016.3 |
| 20260506213028 | 67 | 153 | 3.0 | 10.0 | 0.00 | 0.00 | 0.00 | 38 | 1016.4 |
| 20260506211530 | 67 | 32 | 3.0 | 10.0 | 0.00 | 0.00 | 0.00 | 38 | 1016.5 |
| 20260506210034 | 67 | 55 | 2.0 | 12.0 | 0.00 | 0.00 | 0.00 | 40 | 1016.6 |
| 20260506204532 | 67 | 103 | 4.0 | 13.0 | 0.00 | 0.00 | 0.00 | 36 | 1016.7 |
| 20260506203030 | 67 | 96 | 2.0 | 9.0 | 0.00 | 0.00 | 0.00 | 41 | 1016.8 |
| 20260506201533 | 66 | 23 | 3.0 | 9.0 | 0.00 | 0.00 | 0.00 | 42 | 1017.0 |
| 20260506200039 | 66 | 63 | 3.0 | 10.0 | 0.00 | 0.00 | 0.00 | 40 | 1017.1 |
| 20260506194530 | 65 | 27 | 2.0 | 8.0 | 0.00 | 0.00 | 0.00 | 42 | 1017.2 |
| 20260506193030 | 65 | 86 | 4.0 | 14.0 | 0.00 | 0.00 | 0.00 | 43 | 1017.5 |
| 20260506191528 | 64 | 84 | 3.0 | 11.0 | 0.00 | 0.00 | 0.00 | 42 | 1017.5 |
| 20260506190028 | 64 | 17 | 4.0 | 9.0 | 0.00 | 0.00 | 0.00 | 44 | 1017.8 |
| 20260506184528 | 63 | 36 | 3.0 | 14.0 | 0.00 | 0.00 | 0.00 | 44 | 1017.9 |
| 20260506183034 | 62 | 82 | 3.0 | 12.0 | 0.00 | 0.00 | 0.00 | 44 | 1018.0 |
| 20260506181531 | 62 | 13 | 3.0 | 10.0 | 0.00 | 0.00 | 0.00 | 45 | 1018.3 |
| 20260506180031 | 62 | 304 | 2.0 | 10.0 | 0.00 | 0.00 | 0.00 | 47 | 1018.5 |
| 20260506174530 | 62 | 119 | 3.0 | 11.0 | 0.00 | 0.00 | 0.00 | 43 | 1018.6 |
| 20260506173028 | 62 | 16 | 3.0 | 10.0 | 0.00 | 0.00 | 0.00 | 42 | 1018.6 |
| 20260506171527 | 62 | 303 | 2.0 | 8.0 | 0.00 | 0.00 | 0.00 | 44 | 1019.0 |
| 20260506170031 | 62 | 338 | 2.0 | 11.0 | 0.00 | 0.00 | 0.00 | 48 | 1019.0 |
| 20260506164530 | 61 | 20 | 3.0 | 11.0 | 0.00 | 0.00 | 0.00 | 47 | 1019.0 |
| 20260506163028 | 60 | 59 | 3.0 | 11.0 | 0.00 | 0.00 | 0.00 | 49 | 1019.0 |
| 20260506161533 | 59 | 105 | 3.0 | 11.0 | 0.00 | 0.00 | 0.00 | 50 | 1018.8 |
| 20260506160030 | 58 | 44 | 4.0 | 11.0 | 0.00 | 0.00 | 0.00 | 51 | 1018.6 |
| 20260506154531 | 57 | 22 | 3.0 | 12.0 | 0.00 | 0.00 | 0.00 | 54 | 1018.3 |
| 20260506153032 | 56 | 63 | 2.0 | 12.0 | 0.00 | 0.00 | 0.00 | 57 | 1018.1 |
| 20260506151533 | 55 | 38 | 2.0 | 10.0 | 0.00 | 0.00 | 0.00 | 58 | 1017.8 |
| 20260506150030 | 54 | 61 | 5.0 | 13.0 | 0.00 | 0.00 | 0.00 | 59 | 1017.7 |
| 20260506144532 | 53 | 256 | 2.0 | 11.0 | 0.00 | 0.00 | 0.00 | 63 | 1017.3 |
| 20260506143034 | 52 | 42 | 1.0 | 10.0 | 0.00 | 0.00 | 0.00 | 69 | 1017.9 |
| 20260506141534 | 51 | 77 | 4.0 | 13.0 | 0.00 | 0.00 | 0.00 | 69 | 1017.7 |
| 20260506140030 | 50 | 63 | 3.0 | 9.0 | 0.00 | 0.00 | 0.00 | 72 | 1017.4 |
| 20260506134533 | 50 | 36 | 2.0 | 8.0 | 0.00 | 0.00 | 0.00 | 72 | 1018.0 |
| 20260506133032 | 50 | 72 | 3.0 | 11.0 | 0.00 | 0.00 | 0.00 | 73 | 1018.2 |
| 20260506131534 | 49 | 34 | 2.0 | 5.0 | 0.00 | 0.00 | 0.00 | 74 | 1018.0 |
| 20260506130030 | 49 | 121 | 2.0 | 9.0 | 0.00 | 0.00 | 0.00 | 75 | 1017.8 |
| 20260506124538 | 48 | 118 | 2.0 | 8.0 | 0.00 | 0.00 | 0.00 | 76 | 1017.4 |
| 20260506123038 | 48 | 94 | 1.0 | 8.0 | 0.00 | 0.00 | 0.00 | 77 | 1017.6 |
| 20260506121529 | 48 | 51 | 2.0 | 9.0 | 0.00 | 0.00 | 0.00 | 77 | 1017.1 |
| 20260506120052 | 47 | 53 | 1.0 | 6.0 | 0.00 | 0.00 | 0.00 | 79 | 1017.4 |
| 20260506114528 | 47 | 0 | 2.0 | 10.0 | 0.00 | 0.00 | 0.00 | 80 | 1017.2 |
| 20260506113032 | 47 | 0 | 1.0 | 7.0 | 0.00 | 0.00 | 0.00 | 83 | 1017.0 |
| 20260506111531 | 47 | 0 | 1.0 | 5.0 | 0.00 | 0.00 | 0.00 | 85 | 1016.9 |
| 20260506110031 | 47 | 352 | 0.0 | 6.0 | 0.00 | 0.00 | 0.00 | 85 | 1017.2 |
| 20260506104531 | 47 | 360 | 0.0 | 4.0 | 0.00 | 0.00 | 0.00 | 85 | 1017.1 |